This is the latest recevied weather packets stored in our database for station/object C31FR-13. If no packets are shown the sender has not sent any weather packets the latest 10 day(s).
| Time | Temp. | Humidity | Pressure | Rain* | Wind** | Luminosity | Snow |
|---|---|---|---|---|---|---|---|
| 1777566962 | 19.44° C | 53% | 1017 hPa | - | - | - | - |
| 1777566062 | 18.89° C | 52% | 1017 hPa | - | - | - | - |
| 1777565463 | 20° C | 52% | 1016.8 hPa | - | - | - | - |
| 1777563962 | 18.89° C | 53% | 1016.8 hPa | - | - | - | - |
| 1777563362 | 18.89° C | 53% | 1016.8 hPa | - | - | - | - |
| 1777562762 | 18.89° C | 50% | 1016.5 hPa | - | - | - | - |
| 1777562462 | 19.44° C | 50% | 1016.4 hPa | - | - | - | - |
| 1777559463 | 20° C | 49% | 1016.4 hPa | - | - | - | - |
| 1777559163 | 20° C | 48% | 1016.5 hPa | - | - | - | - |
| 1777558562 | 20° C | 49% | 1016.3 hPa | - | - | - | - |
| 1777557962 | 19.44° C | 50% | 1016.4 hPa | - | - | - | - |
| 1777557363 | 19.44° C | 51% | 1016.4 hPa | - | - | - | - |
| 1777556763 | 19.44° C | 51% | 1016.4 hPa | - | - | - | - |
| 1777556163 | 19.44° C | 53% | 1016.5 hPa | - | - | - | - |
| 1777555862 | 18.89° C | 53% | 1016.6 hPa | - | - | - | - |
| 1777555562 | 19.44° C | 54% | 1016.7 hPa | - | - | - | - |
| 1777555263 | 19.44° C | 54% | 1016.7 hPa | - | - | - | - |
| 1777554962 | 18.89° C | 54% | 1016.7 hPa | - | - | - | - |
| 1777554662 | 18.89° C | 56% | 1016.8 hPa | - | - | - | - |
| 1777554362 | 18.89° C | 57% | 1016.8 hPa | - | - | - | - |
| 1777554063 | 18.89° C | 58% | 1016.8 hPa | - | - | - | - |
| 1777553462 | 18.89° C | 60% | 1016.7 hPa | - | - | - | - |
| 1777551963 | 18.33° C | 61% | 1016.8 hPa | - | - | - | - |
| 1777551664 | 18.33° C | 63% | 1016.8 hPa | - | - | - | - |
| 1777551075 | 18.33° C | 66% | 1016.7 hPa | - | - | - | - |
* Rain since midnight (hover to see other rain measurements)
** Current wind speed in m/s (hover to see current wind gust speed)